Hourly Data Report for September 11, 2017

All times are specified in Local Standard Time (LST). Add 1 hour to adjust for Daylight Saving Time where and when it is observed.

CAPE DORSET A
NUNAVUT

64°13'49.000" N
76°31'30.000" W
48.20 m
2400637
71366
YTE

Related Data

No related data is available for this station

Download Data

Hourly Data (September 2017)
Hourly Data Report for September 11, 2017
Temp Definition
°C
Dew Point Temp Definition
°C
Rel Hum Definition
%
Wind Dir Definition
10's deg

Wind Spd Definition
km/h
Visibility Definition
km
Stn Press Definition
kPa
Hmdx Definition


Wind Chill Definition


Weather Definition


TIME
00:00 Legend Double Dagger 0.1 -1.6 88 LegendMM 5 16.1 101.19     LegendNANA
01:00 Legend Double Dagger 0.4 -1.8 85 23 11 16.1 101.15     LegendNANA
02:00 Legend Double Dagger 0.3 -1.9 85 28 4 16.1 101.12     LegendNANA
03:00 Legend Double Dagger 0.4 -2.1 83 LegendMM 4 16.1 101.05     LegendNANA
04:00 Legend Double Dagger -0.3 -1.1 95   0 16.1 100.94     Rain
05:00 Legend Double Dagger 0.4 -0.8 92 9 8 16.1 100.87     LegendNANA
06:00 Legend Double Dagger 0.6 -0.8 90 11 13 16.1 100.81     LegendNANA
07:00 Legend Double Dagger 0.7 -0.2 94 11 17 16.1 100.73     LegendNANA
08:00 Legend Double Dagger 0.8 0.2 96 10 17 16.1 100.67     LegendNANA
09:00 Legend Double Dagger 1.1 -0.4 90 11 22 16.1 100.61     LegendNANA
10:00 Legend Double Dagger 1.4 0.2 92 9 28 16.1 100.53     LegendNANA
11:00 Legend Double Dagger 1.5 0.6 94 9 28 16.1 100.46     LegendNANA
12:00 Legend Double Dagger 1.7 0.8 94 9 32 16.1 100.32     LegendNANA
13:00 Legend Double Dagger 1.6 0.6 93 10 39 16.1 100.17     LegendNANA
14:00 Legend Double Dagger 1.7 0.5 92 11 35 16.1 100.08     LegendNANA
15:00 Legend Double Dagger 1.3 0.7 96 9 45 12.9 99.86     Rain
16:00 Legend Double Dagger 1.8 0.3 90 9 46 16.1 99.78     LegendNANA
17:00 Legend Double Dagger 1.8 -0.3 86 9 50 16.1 99.67     LegendNANA
18:00 Legend Double Dagger 2.2 -0.1 85 9 58 16.1 99.46     LegendNANA
19:00 Legend Double Dagger 2.5 0.2 85 8 54 16.1 99.40     LegendNANA
20:00 Legend Double Dagger 2.0 0.8 92 8 54 12.9 99.28     Rain
21:00 Legend Double Dagger 2.1 0.9 92 8 61 8.1 99.07     Rain,Fog
22:00 Legend Double Dagger 2.3 1.1 92 9 67 9.7 98.96     Rain,Fog
23:00 Legend Double Dagger 1.9 1.2 95 9 68 4.8 98.76     Rain,Fog

Notes on Data Quality.

Legend

  • E = Estimated
  • M = Missing
  • NA = Not Available
  • ‡ = Partner data that is not subject to review by the National Climate Archives
Date modified: